Regional Weather Roundup
Issued by NWS

Home | Current Version | Previous Version | Graphics & Text | Print | Product List | Glossary On
Versions: 1 2 3 4 5 6 7 8 9 10 11 12 13 14 15 16 17 18 19 20 21 22 23 24 25 26 27 28 29 30 31 32 33 34 35 36 37 38 39 40 41 42 43 44 45 46 47 48 49 50
000
ASUS43 KMKX 222121
RWRWI

WISCONSIN REGIONAL WEATHER ROUNDUP
NATIONAL WEATHER SERVICE MILWAUKEE/SULLIVAN WI
400 PM CDT FRI AUG 22 2014

NOTE: "FAIR" INDICATES FEW OR NO CLOUDS BELOW 12,000 FEET WITH NO
SIGNIFICANT WEATHER AND/OR OBSTRUCTIONS TO VISIBILITY.

WIZ001-002-006>008-014>016-023>028-222200-
NORTHWEST WISCONSIN

CITY           SKY/WX    TMP DP  RH WIND       PRES   REMARKS
SUPERIOR ARPT  CLOUDY    64  61  89 NE7       30.00S
ASHLAND        CLOUDY    67  63  87 NE8       30.00F
HAYWARD        CLOUDY    73  68  84 NE6       29.98F
SIREN          CLOUDY    73  67  82 N6        29.98S
RICE LAKE      CLOUDY    76  69  79 N5        29.98S
LADYSMITH      PTSUNNY   78  71  79 N9        29.98F HX  81
EAU CLAIRE     MOSUNNY   85  70  60 W8        29.93F HX  89
MENOMONIE      CLEAR     84  69  61 W8        29.94S HX  87
NEW RICHMOND   CLOUDY    74  69  86 CALM      29.98S
OSCEOLA        CLOUDY    74  71  91 NW3       30.00S
$$

WIZ003>005-009-010-017-018-222200-
NORTH CENTRAL WISCONSIN

CITY           SKY/WX    TMP DP  RH WIND       PRES   REMARKS
WOODRUFF       CLOUDY    77  72  84 CALM      29.99S
RHINELANDER    CLOUDY    71  70  96 S6        30.00R FOG
EAGLE RIVER    CLOUDY    72  70  95 CALM      29.99R
LAND O LAKES   CLOUDY    73  69  86 CALM      30.00S
PHILLIPS       CLOUDY    74  70  89 N5        29.97F
TOMAHAWK       CLOUDY    72  68  89 CALM      29.99R FOG
MEDFORD        CLOUDY    76  74  95 E5        29.96F
MERRILL        CLOUDY    72  72  98 CALM      29.98R FOG
$$

WIZ029-030-035-036-043>047-222200-
CENTRAL WISCONSIN

CITY           SKY/WX    TMP DP  RH WIND       PRES   REMARKS
WAUSAU         PTSUNNY   81  73  76 NW6       29.94S HX  86
MOSINEE        PTSUNNY   81  75  83 W10       29.96S HX  86
MARSHFIELD     PTSUNNY   82  74  76 VRB3      29.94F HX  88
STEVENS POINT  MOSUNNY   83  72  69 W8        29.94S HX  88
WAUPACA        MOSUNNY   87  74  64 SE6       29.93S HX  95
WAUTOMA        MOSUNNY   89  74  61 SW6       29.92F HX  97
WISC RAPIDS    MOSUNNY   85  73  67 NW8       29.94F HX  91
CAMP DOUGLAS   MOSUNNY   87  78  74 NW7       29.92F HX  99
$$

WIZ011>013-019>022-031-037>040-048>050-222200-
NORTHEAST WISCONSIN

CITY           SKY/WX    TMP DP  RH WIND       PRES   REMARKS
ANTIGO         CLOUDY    71  70  98 E6        29.98S FOG
STURGEON BAY   MOSUNNY   73  70  88 E6        29.98R
GREEN BAY      SUNNY     82  73  74 E7        29.94S HX  87
MANITOWOC      CLOUDY    73  71  93 SE7       29.96S
APPLETON       MOSUNNY   82  72  69 VRB3      29.94F HX  87
CLINTONVILLE   PTSUNNY   81  72  74 E5        29.94R HX  84
OSHKOSH        SUNNY     83  74  74 E6        29.93R HX  89
$$

WIZ032>034-041-042-053>061-222200-
SOUTHWEST WISCONSIN

CITY           SKY/WX    TMP DP  RH WIND       PRES   REMARKS
LA CROSSE      SUNNY     86  75  69 VRB3      29.91F HX  95
SPARTA         MOSUNNY   85  73  67 W7        29.93F HX  91
VIROQUA        MOCLDY    87  76  71 W6        29.95R HX  97
BOSCOBEL       SUNNY     92  72  51 VRB6      29.91S HX  99
PRAIRIE DU CHI MOSUNNY   89  71  56 S3        29.90S HX  95
PLATTEVILLE    FAIR      86  76  71 CALM      29.94S HX  95
$$

WIZ056-057-062-063-064-067-068-222200-
SOUTH CENTRAL WISCONSIN

CITY           SKY/WX    TMP DP  RH WIND       PRES   REMARKS
BARABOO/DELLS  SUNNY     88  68  52 NW3       29.92S HX  91
LONE ROCK      MOSUNNY   93  73  52 W3        29.91S HX 102
WATERTOWN      SUNNY     85  75  72 CALM      29.91S HX  93
MADISON        MOSUNNY   88  72  58 NW5       29.92S HX  94
MIDDLETON      FAIR      89  71  55 W3        29.93S HX  95
MONROE         SUNNY     86  73  66 SW5       29.94R HX  93
JANESVILLE     MOSUNNY   88  73  62 W5        29.91F HX  96
$$

WIZ051-052-058>065-066-070>072-222200-
SOUTHEAST WISCONSIN

CITY           SKY/WX    TMP DP  RH WIND       PRES   REMARKS
MILWAUKEE      MOSUNNY   79  72  79 E12       29.93S HX  82
WAUKESHA       PTSUNNY   84  73  70 S3        29.94F HX  91
MILWAUKEE/TIMM SUNNY     82  70  65 E8        29.94S HX  86
RACINE         MOSUNNY   82  72  71 E8        29.94F HX  87
BURLINGTON     MOSUNNY   85  74  70 CALM      29.92S HX  93
KENOSHA        MOSUNNY   84  75  74 VRB3      29.93F HX  92
FOND DU LAC    MOSUNNY   87  70  56 W3        29.93S HX  92
SHEBOYGAN      MOSUNNY   77  71  82 SE12      29.95S
WEST BEND      CLOUDY    79  70  73 E7        29.95R HX  81
JUNEAU         MOSUNNY   85  70  60 SW3       29.94S HX  90
$$

LSZ147-162-222200-
LAKE SUPERIOR

STATION/POSITION TIME  TEMP    WIND        PRES    WAVE
                       AIR SEA DIR/SP/G            HT/PER
                 (UTC) (F)     (DEG/KT/KT) (MB)    (FT/S)
W MID LAKE BUOY  2050   58 58   30/ 12/ 14 1015.5R   2/ 4
DEVILS ISLAND    2100   60      50/ 10/ 12 1015.8F
PORT WING        2000   59      30/  8/  9 1016.3
SAXON HARBOR     2000   63     350/  3/  5 1015.9R
$$

LMZ867-665-643>646-222200-
LAKE MICHIGAN

STATION/POSITION TIME  TEMP    WIND        PRES    WAVE
                       AIR SEA DIR/SP/G            HT/PER
                 (UTC) (F)     (DEG/KT/KT) (MB)    (FT/S)
N MID LAKE BUOY  2050   68 68   50/  2/  4 1014.7F   0
NORTHPORT PIER   2000   68     100/  6/  6 1014.9F
SISTER BAY       2041   84     100/  8/ 11   N/A
KEWAUNEE LAKESHO 2000   69     100/  4/  5 1013.9F
SHEBOYGAN LAKESH 2100   69 65  110/  4/  5 1014.6R
ATWATER BUOY     2100   71      50/ 10/ 10 1014.8F
MILWAUKEE LAKESH 2100   71      50/ 12/ 13   N/A
S MID LAKE BUOY  2050   72 72  110/  4/  4 1013.7F   0
KENOSHA   LAKESH 2100   79     100/  3/  4 1012.9F
$$

TC  - TEMPERATURE IN CELSIUS
VSB - VISIBILITY IN STATUTE MILES
WCI - WIND CHILL INDEX
HX  - HEAT INDEX



USA.gov is the U.S. government's official web portal to all federal, state and local government web resources and services.